Skip Page Navigation
NASA JPL Caltech
NASA Logo - Jet Propulsion Laboratory + View the NASA Portal
+ Center for Near-Earth Object Studies
JPL Home Earth Solar System Stars & Galaxies Technology
JPL Solar System Dynamics
BODIES ORBITS EPHEMERIDES TOOLS PHYSICAL DATA DISCOVERY FAQ SITE MAP
JPL Small-Body Database Browser
Search: [ help ]  
12970 (4012 T-3)
Classification: Main-belt Asteroid          SPK-ID: 2012970
Ephemeris | Orbit Diagram | Orbital Elements | Mission Design | Physical Parameters | Discovery Circumstances | Close-Approach Data ]

[ hide orbit diagram ]

For accurate long-term ephemerides, please instead use our Horizons system.This orbit viewer was implemented using two-body methods, and hence should not be used for determining accurate long-term trajectories (over several years or decades) or planetary encounter circumstances.


[ revert to old Java-based viewer ]

Orbital Elements at Epoch 2459000.5 (2020-May-31.0) TDB
Reference: JPL 30 (heliocentric ecliptic J2000)
 Element Value Uncertainty (1-sigma)   Units 
e .06446162319568077 3.6582e-08  
a 3.050002209032368 1.7774e-08 au
q 2.853394115887729 1.1146e-07 au
i 10.63198348801594 4.4446e-06 deg
node 40.78238150989397 2.1303e-05 deg
peri 278.6599487218904 3.9692e-05 deg
M 52.38061003490643 3.3078e-05 deg
tp 2458717.415096993462
(2019-Aug-21.91509699)
0.00017881 TDB
period 1945.578049099478
5.33
1.7007e-05
4.656e-08
d
yr
n .1850349823625057 1.6174e-09 deg/d
Q 3.246610302177006 1.8919e-08 au
  Orbit Determination Parameters
   # obs. used (total)      1659  
   data-arc span      15729 days (43.06 yr)  
   first obs. used      1977-10-07  
   last obs. used      2020-10-30  
   planetary ephem.      DE431  
   SB-pert. ephem.      SB431-N16  
   condition code      0  
   norm. resid. RMS      .4931  
   source      ORB  
   producer      Otto Matic  
   solution date      2020-Nov-13 02:49:26  

Additional Information
 Earth MOID = 1.8667 au 
 Jupiter MOID = 1.96985 au 
 T_jup = 3.208 
[ show covariance matrix ]

Ephemeris | Orbit Diagram | Orbital Elements | Mission Design | Physical Parameters | Discovery Circumstances | Close-Approach Data ]

Physical Parameter Table
Parameter Symbol Value Units Sigma Reference Notes
absolute magnitude H 13.4   n/a MPO358756  

12970 (4012 T-3)          Discovered 1977-Oct-16 by van Houten, C. J., van Houten-Groeneveld, I., Gehrels, T. at Palomar
Reference: 19991222/Numbers.arcLast Updated: 2004-04-19

[ show close-approach data ]
Alternate Designations
 4012 T-3 = 1991 GF10 
Ephemeris | Orbit Diagram | Orbital Elements | Mission Design | Physical Parameters | Discovery Circumstances | Close-Approach Data ]
ABOUT SSD CREDITS/AWARDS PRIVACY/COPYRIGHT GLOSSARY LINKS
FirstGov 2020-Nov-25 03:19 UT
(server date/time)  
NASA Home Page
Site Manager:   Ryan S. Park
Webmaster  Alan B. Chamberlin